GALAXY 28 (G-28)

Last updated on Thu Nov 21 2024 00:02:40 GMT+0000 (Coordinated Universal Time)

1 28702U 05022A 24325.32618860 -.00000183 00000+0 00000+0 0 9999 2 28702 1.8139 86.0390 0006618 174.9502 187.2815 1.00270785 46235
UTC large
Height (km)
Speed (km/s)
/
Latitude / Longitude
Inclination (degrees)
Orbital Period (minutes)
Azimuth
Elevation
Range (km)
Doppler Factor

Next 0 passes for location: London (51.5072 / 0.1276)

Sorry there are no passes over London.